Location: Seasalter
(51.3333°N, 1.0167°E)
Time: 19:44:02
(UTC+00:00)

NOSS 2-3 (E) - Pass Details

Date: 26 September 2023
Orbit: 505 x 1696 km, 63.3° (Epoch: 05 December)

Event Time Altitude Azimuth Distance (km) Brightness Sun altitude
Exits shadow 02:56:03 37° 304° (NW) 1,412 5.1 -26.1°
Maximum altitude 02:58:36 72° 230° (SW) 1,064 4.4 -25.8°
Drops below altitude 10° 03:06:18 10° 147° (SSE) 3,269 7.2 -24.8°
Sets 03:09:32 0° 146° (SE) 4,415 7.9 -24.4°
